Location: Valencia
(39.4696°N, 0.3770°W)
Time: 02:43:46
(UTC+02:00)

ISS - Visible Passes

Search period start: 22 October 2017 00:00
Search period end: 31 October 2017 23:00
Orbit: 401 x 408 km, 51.6° (Epoch: 22 October)

Date Brightness Start Highest point End Pass type
(mag) Time Alt. Az. Time Alt. Az. Time Alt. Az.
27 Oct -0.9 07:52:51 10° S 07:55:12 19° SE 07:57:35 10° E visible
29 Oct -2.8 06:43:28 10° SSW 06:46:37 47° SE 06:49:45 10° ENE visible
30 Oct -1.6 05:51:38 10° S 05:54:17 23° SE 05:56:58 10° ENE visible
31 Oct -0.6 05:02:21 12° ESE 05:02:21 12° ESE 05:03:23 10° ESE visible
31 Oct -3.9 06:35:03 11° WSW 06:38:06 66° NW 06:41:20 10° NE visible
